Weather History for Lumberton, NC

Change the Weather History Date:

Saturday, March 30, 2013

  Actual Average Record
Temperature  
Mean Temperature 56 °F 58 °F  
Max Temperature 64 °F 70 °F 83 °F (2012)
Min Temperature 47 °F 45 °F 37 °F (2007)
Degree Days  
Heating Degree Days 9 8  
Month to date heating degree days 531 340  
Since 1 July heating degree days 2605 2570  
Cooling Degree Days 0 1  
Month to date cooling degree days 1 2  
Year to date cooling degree days 5 5  
Growing Degree Days 4 (Base 50)    
Moisture  
Dew Point 45 °F    
Average Humidity 76    
Maximum Humidity 100    
Minimum Humidity 52    
Precipitation  
Precipitation 0.18 in 0.12 in 0.93 in (2011)
Month to date precipitation 1.73 3.21  
Year to date precipitation 7.30 9.08  
Sea Level Pressure  
Sea Level Pressure 30.18 in    
Wind  
Wind Speed 4 mph (SSE)    
Max Wind Speed 10 mph    
Max Gust Speed 15 mph    
Visibility 9 miles    
Events Rain    
T = Trace of Precipitation, MM = Missing Value Source: NWS Daily Summary

Daily Weather History Graph

Daily Weather History Graph

Search for Another Location

Airport:

Trip Planner

Search our weather history database for the weather conditions in past years. The results will help you decide how hot, cold, wet, or windy it might be!

Date:

Astronomy

Mar. 30, 2013 Rise Set
Actual Time 7:05 AM EDT 7:35 PM EDT
Civil Twilight 6:40 AM EDT 8:01 PM EDT
Nautical Twilight 6:10 AM EDT 8:31 PM EDT
Astronomical Twilight 5:40 AM EDT 9:01 PM EDT
Moon 11:30 PM EDT (3/30) 9:08 AM EDT (3/30)
Length of Visible Light 13h 20m
Length of Day
12h 30m
Waning Gibbous, 86% of the Moon is Illuminated
Mar 30
Waning Gibbous
Apr 3
Last Quarter
Apr 10
New
Apr 18
First Quarter
Apr 25
Full

Hourly Weather History & Observations

Time (EDT) Temp. Dew Point Humidity Pressure Visibility Wind Dir Wind Speed Gust Speed Precip Events Conditions
12:54 AM 52.0 °F 37.0 °F 57% 30.22 in 10.0 mi SSW 6.9 mph - N/A   Overcast
1:54 AM 52.0 °F 37.0 °F 57% 30.21 in 10.0 mi SSW 5.8 mph - N/A   Overcast
2:54 AM 51.1 °F 37.9 °F 61% 30.21 in 10.0 mi SW 6.9 mph - N/A   Overcast
3:54 AM 48.9 °F 43.0 °F 80% 30.21 in 5.0 mi WSW 6.9 mph - 0.01 in Rain Light Rain
4:54 AM 46.9 °F 45.0 °F 93% 30.21 in 6.0 mi West 4.6 mph - 0.05 in Rain Light Rain
5:54 AM 46.9 °F 46.0 °F 97% 30.22 in 5.0 mi West 5.8 mph - 0.05 in Rain Light Rain
6:54 AM 46.9 °F 46.0 °F 97% 30.25 in 5.0 mi Calm Calm - 0.03 in Rain Light Rain
7:54 AM 48.0 °F 46.9 °F 96% 30.26 in 3.0 mi Calm Calm - 0.02 in Rain Light Rain
8:54 AM 48.9 °F 46.9 °F 93% 30.26 in 5.0 mi Calm Calm - 0.01 in Rain Light Rain
9:54 AM 50.0 °F 48.0 °F 93% 30.24 in 8.0 mi Calm Calm - 0.01 in   Overcast
10:54 AM 50.0 °F 46.9 °F 89% 30.22 in 10.0 mi NE 4.6 mph - N/A   Overcast
11:54 AM 53.1 °F 48.9 °F 86% 30.21 in 10.0 mi ENE 4.6 mph - N/A   Overcast
12:54 PM 57.0 °F 48.0 °F 72% 30.19 in 10.0 mi Variable 4.6 mph - N/A   Mostly Cloudy
1:54 PM 61.0 °F 46.0 °F 58% 30.17 in 10.0 mi ESE 6.9 mph - N/A   Clear
2:54 PM 62.1 °F 46.0 °F 56% 30.14 in 10.0 mi SSW 10.4 mph - N/A   Clear
3:54 PM 63.0 °F 45.0 °F 52% 30.12 in 10.0 mi Variable 3.5 mph - N/A   Scattered Clouds
4:54 PM 63.0 °F 46.0 °F 54% 30.11 in 10.0 mi Calm Calm - N/A   Clear
5:54 PM 62.1 °F 48.0 °F 60% 30.11 in 10.0 mi SSE 3.5 mph - N/A   Scattered Clouds
6:54 PM 61.0 °F 48.0 °F 62% 30.11 in 10.0 mi SE 3.5 mph - N/A   Overcast
7:54 PM 55.9 °F 48.0 °F 75% 30.12 in 10.0 mi SE 4.6 mph - N/A   Clear
8:54 PM 53.1 °F 46.9 °F 80% 30.12 in 10.0 mi SE 4.6 mph - N/A   Clear
9:54 PM 51.1 °F 46.0 °F 83% 30.13 in 10.0 mi SE 4.6 mph - N/A   Clear
10:54 PM 48.9 °F 45.0 °F 86% 30.13 in 10.0 mi SE 4.6 mph - N/A   Clear
11:54 PM 48.0 °F 45.0 °F 89% 30.12 in 10.0 mi SE 3.5 mph - N/A   Clear